Lakehurst, NJ

6:44 AM EDT on July 23, 2016 (GMT -0400)
Lakehurst Naes

Weather History for KNEL - April, 2014

Change the Weather History Date:

Sunday, April 20, 2014

  Actual Average Record
Temperature  
Mean Temperature 42 °F -  
Max Temperature 30 °F 59 °F 82 °F (2006)
Min Temperature 30 °F 42 °F 30 °F (2014)
Degree Days  
Heating Degree Days 22    
Moisture  
Dew Point 28 °F    
Average Humidity 52    
Maximum Humidity 86    
Minimum Humidity 32    
Precipitation  
Precipitation 0.00 in - - ()
Sea Level Pressure  
Sea Level Pressure 30.41 in    
Wind  
Wind Speed 7 mph (ENE)    
Max Wind Speed 18 mph    
Max Gust Speed 26 mph    
Averages and records for this station are not official NWS values.
T = Trace of Precipitation, MM = Missing Value Source: NWS Daily Summary

Daily Weather History Graph

Daily Weather History Graph

Search for Another Location

Airport or City:

Trip Planner

Search our weather history database for the weather conditions in past years. The results will help you decide how hot, cold, wet, or windy it might be!

Date:

Astronomy

Apr. 20, 2014 Rise Set
Actual Time 6:12 AM EDT 7:41 PM EDT
Civil Twilight 5:43 AM EDT 8:09 PM EDT
Nautical Twilight 5:09 AM EDT 8:43 PM EDT
Astronomical Twilight 4:33 AM EDT 9:20 PM EDT
Moon 12:18 AM EDT (4/20) 10:30 AM EDT (4/20)
Length of Visible Light 14h 25m
Length of Day
13h 28m
Waning Gibbous, 69% of the Moon is Illuminated
Apr 20
Waning Gibbous
Apr 22
Last Quarter
Apr 29
New
May 6
First Quarter
May 14
Full

Hourly Weather History & Observations

Time (EDT) Temp. Windchill Dew Point Humidity Pressure Visibility Wind Dir Wind Speed Gust Speed Precip Events Conditions
12:00 AM 39.9 °F - 33.1 °F 77% 30.32 in - Calm Calm - N/A   Clear
1:00 AM 43.0 °F - 33.1 °F 68% 30.34 in - Calm Calm - N/A   Clear
2:00 AM 37.0 °F - 33.1 °F 86% 30.35 in - Calm Calm - N/A   Clear
3:00 AM 44.1 °F 42.5 °F 30.9 °F 60% 30.35 in - NNE 3.5 mph - N/A   Clear
4:00 AM 46.9 °F - 30.0 °F 52% 30.35 in - NE 5.8 mph - N/A   Clear
5:00 AM 46.9 °F - 37.0 °F 68% 30.39 in - East 15.0 mph - N/A   Clear
6:00 AM 46.0 °F 39.0 °F 33.1 °F 61% 30.41 in - East 17.3 mph 23.0 mph N/A   Clear
7:00 AM 46.0 °F 40.6 °F 30.0 °F 54% 30.43 in - East 11.5 mph - N/A   Clear
8:00 AM 46.9 °F - 28.9 °F 50% 30.44 in - ENE 15.0 mph 21.9 mph N/A   Clear
9:00 AM 48.0 °F - 28.9 °F 48% 30.46 in - East 15.0 mph - N/A   Clear
10:00 AM 48.9 °F - 28.0 °F 44% 30.48 in - East 18.4 mph 26.5 mph N/A   Clear
11:00 AM 50.0 °F - 28.0 °F 43% 30.48 in - East 15.0 mph 21.9 mph N/A   Clear
12:00 PM 50.0 °F - 26.1 °F 39% 30.49 in - ESE 16.1 mph 21.9 mph N/A   Clear
1:00 PM 51.1 °F - 24.1 °F 35% 30.47 in - East 15.0 mph - N/A   Clear
2:00 PM 52.0 °F - 23.0 °F 32% 30.47 in - East 13.8 mph - N/A   Clear
3:00 PM 51.1 °F - 23.0 °F 33% 30.44 in - ENE 17.3 mph 20.7 mph N/A   Clear
4:00 PM 51.1 °F - 23.0 °F 33% 30.43 in - ENE 13.8 mph - N/A   Clear
5:00 PM 48.9 °F - 19.9 °F 32% 30.42 in - East 12.7 mph - N/A   Clear
6:00 PM 48.0 °F - 21.9 °F 36% 30.42 in - East 10.4 mph - N/A   Clear
8:00 PM 42.1 °F 40.2 °F 24.1 °F 49% 30.38 in - ENE 3.5 mph - N/A   Clear
10:00 PM 33.1 °F - 25.0 °F 72% 30.36 in - Calm Calm - N/A   Clear
11:00 PM 30.0 °F - 25.0 °F 82% 30.34 in - Calm Calm - N/A   Clear